Weather History for Novato, CA

Change the Weather History Date:

Wednesday, January 1, 2014

  Actual Average (KAPC) Record (KAPC)
Temperature  
Mean Temperature 44 °F 45 °F  
Max Temperature 64 °F 54 °F 63 °F (2014)
Min Temperature 24 °F 36 °F 25 °F (2014)
Degree Days  
Heating Degree Days 21    
Month to date heating degree days  
Since 1 July heating degree days  
Cooling Degree Days 0    
Month to date cooling degree days  
Year to date cooling degree days  
Moisture  
Dew Point 33 °F    
Average Humidity 75    
Maximum Humidity 100    
Minimum Humidity 27    
Precipitation  
Precipitation 0.00 in - 1.50 in (2004)
Month to date precipitation  
Year to date precipitation  
Since 1 July precipitation  
Sea Level Pressure  
Sea Level Pressure 30.18 in    
Wind  
Wind Speed 1 mph (SE)    
Max Wind Speed 7 mph    
Max Gust Speed -    
Visibility 7 miles    
Events Fog    
T = Trace of Precipitation, MM = Missing Value Source: NWS Daily Summary

Daily Weather History Graph

Daily Weather History Graph

Search for Another Location

Airport:

Trip Planner

Search our weather history database for the weather conditions in past years. The results will help you decide how hot, cold, wet, or windy it might be!

Date:

Astronomy

Jan. 01, 2014 Rise Set
Actual Time 7:26 AM PST 5:01 PM PST
Civil Twilight 6:57 AM PST 5:30 PM PST
Nautical Twilight 6:24 AM PST 6:03 PM PST
Astronomical Twilight 5:52 AM PST 6:35 PM PST
Moon 7:23 AM PST (1/1) 5:51 PM PST (1/1)
Length of Visible Light 10h 33m
Length of Day
9h 34m
Waxing Crescent, 0% of the Moon is Illuminated
Jan 1
Waxing Crescent
Jan 7
First Quarter
Jan 15
Full
Jan 23
Last Quarter
Jan 30
New

Hourly Weather History & Observations

Time (PST) Temp. Windchill Dew Point Humidity Pressure Visibility Wind Dir Wind Speed Gust Speed Precip Events Conditions
12:15 AM 35.6 °F - 35.6 °F 100% 30.21 in 10.0 mi Calm Calm - N/A   Clear
12:35 AM 33.8 °F - 33.8 °F 100% 30.20 in 8.0 mi Calm Calm - N/A   Clear
12:55 AM 35.6 °F - 35.6 °F 100% 30.20 in 5.0 mi Calm Calm - N/A   Clear
1:15 AM 35.6 °F - 35.6 °F 100% 30.20 in 1.2 mi Calm Calm - N/A   Clear
1:35 AM 32.0 °F - 32.0 °F 100% 30.20 in 7.0 mi Calm Calm - N/A   Clear
1:55 AM 32.0 °F - 32.0 °F 100% 30.21 in 0.8 mi Calm Calm - N/A   Mist
2:15 AM 32.0 °F - 32.0 °F 100% 30.21 in 0.2 mi Calm Calm - N/A Fog Light Freezing Fog
2:35 AM 32.0 °F - 32.0 °F 100% 30.21 in 0.2 mi Calm Calm - N/A Fog Fog
2:55 AM 33.8 °F - 33.8 °F 100% 30.21 in 0.2 mi Calm Calm - N/A Fog Fog
3:15 AM 26.6 °F 22.6 °F 26.6 °F 100% 30.21 in 0.2 mi North 3.5 mph - N/A Fog Light Freezing Fog
3:35 AM 32.0 °F - 32.0 °F 100% 30.21 in 5.0 mi Calm Calm - N/A   Clear
3:55 AM 32.0 °F 28.7 °F 32.0 °F 100% 30.20 in 1.2 mi SSW 3.5 mph - N/A   Clear
4:15 AM 32.0 °F - 32.0 °F 100% 30.20 in 2.5 mi Calm Calm - N/A   Clear
4:35 AM 28.4 °F - 28.4 °F 100% 30.19 in 2.0 mi Calm Calm - N/A   Clear
4:55 AM 28.4 °F - 28.4 °F 100% 30.19 in 1.8 mi Calm Calm - N/A   Clear
5:15 AM 30.2 °F - 30.2 °F 100% 30.19 in 0.2 mi Calm Calm - N/A Fog Light Freezing Fog
5:35 AM 32.0 °F - 32.0 °F 100% 30.19 in 0.2 mi Calm Calm - N/A Fog Light Freezing Fog
5:55 AM 28.4 °F - 28.4 °F 100% 30.19 in 0.2 mi Calm Calm - N/A Fog Light Freezing Fog
6:15 AM 30.2 °F - 30.2 °F 100% 30.20 in 0.2 mi Calm Calm - N/A Fog Light Freezing Fog
6:35 AM 30.2 °F - 30.2 °F 100% 30.20 in 0.8 mi Calm Calm - N/A   Mist
6:55 AM 30.2 °F - 30.2 °F 100% 30.20 in 3.0 mi Calm Calm - N/A   Clear
7:15 AM 30.2 °F - 30.2 °F 100% 30.20 in 2.0 mi North - - N/A   Clear
7:35 AM 28.4 °F - 28.4 °F 100% 30.21 in 2.0 mi North - - N/A   Clear
7:55 AM 24.8 °F - 24.8 °F 100% 30.21 in 0.2 mi Calm Calm - N/A Fog Light Freezing Fog
8:15 AM 28.4 °F - 28.4 °F 100% 30.21 in 3.0 mi Calm Calm - N/A   Mist
8:35 AM 32.0 °F - 32.0 °F 100% 30.22 in 5.0 mi Calm Calm - N/A   Mist
8:55 AM 33.8 °F - 33.8 °F 100% 30.23 in 7.0 mi Calm Calm - N/A   Unknown
9:15 AM 37.4 °F - 37.4 °F 100% 30.23 in 8.0 mi Calm Calm - N/A   Unknown
9:35 AM 39.2 °F - 39.2 °F 100% 30.23 in 10.0 mi Calm Calm - N/A   Unknown
9:55 AM 41.0 °F - 39.2 °F 93% 30.23 in 10.0 mi Calm Calm - N/A   Unknown
10:15 AM 44.6 °F - 39.2 °F 81% 30.23 in 10.0 mi Calm Calm - N/A   Unknown
10:35 AM 46.4 °F - 39.2 °F 76% 30.22 in 10.0 mi Calm Calm - N/A   Unknown
10:55 AM 50.0 °F - 39.2 °F 66% 30.22 in 10.0 mi Calm Calm - N/A   Unknown
11:15 AM 53.6 °F - 39.2 °F 58% 30.21 in 10.0 mi Calm Calm - N/A   Unknown
11:35 AM 55.4 °F - 39.2 °F 54% 30.20 in 10.0 mi Calm Calm - N/A   Unknown
11:55 AM 55.4 °F - 39.2 °F 54% 30.19 in 10.0 mi Calm Calm - N/A   Unknown
12:15 PM 57.2 °F - 39.2 °F 51% 30.19 in 10.0 mi ESE 3.5 mph - N/A   Unknown
12:35 PM 59.0 °F - 37.4 °F 45% 30.18 in 10.0 mi SE 3.5 mph - N/A   Unknown
12:55 PM 59.0 °F - 35.6 °F 42% 30.17 in 10.0 mi SE 4.6 mph - N/A   Unknown
1:15 PM 59.0 °F - 32.0 °F 36% 30.16 in 10.0 mi SE 5.8 mph - N/A   Unknown
1:35 PM 59.0 °F - 32.0 °F 36% 30.16 in 10.0 mi SE 5.8 mph - N/A   Unknown
1:55 PM 60.8 °F - 28.4 °F 29% 30.15 in 10.0 mi SE 5.8 mph - N/A   Unknown
2:15 PM 60.8 °F - 30.2 °F 31% 30.15 in 10.0 mi SE 3.5 mph - N/A   Unknown
2:35 PM 62.6 °F - 30.2 °F 30% 30.15 in 10.0 mi South 5.8 mph - N/A   Unknown
2:55 PM 62.6 °F - 28.4 °F 27% 30.15 in 10.0 mi South 6.9 mph - N/A   Unknown
3:15 PM 62.6 °F - 28.4 °F 27% 30.15 in 10.0 mi South 4.6 mph - N/A   Unknown
3:35 PM 64.4 °F - 30.2 °F 28% 30.14 in 10.0 mi Calm Calm - N/A   Unknown
3:55 PM 62.6 °F - 32.0 °F 32% 30.14 in 10.0 mi SE 3.5 mph - N/A   Unknown
4:15 PM 60.8 °F - 32.0 °F 34% 30.14 in 10.0 mi SE 4.6 mph - N/A   Unknown
4:35 PM 59.0 °F - 32.0 °F 36% 30.14 in 10.0 mi SE 3.5 mph - N/A   Unknown
4:55 PM 57.2 °F - 32.0 °F 38% 30.14 in 10.0 mi Calm Calm - N/A   Unknown
5:15 PM 55.4 °F - 30.2 °F 38% 30.14 in 10.0 mi Calm Calm - N/A   Unknown
5:35 PM 53.6 °F - 32.0 °F 44% 30.14 in 10.0 mi Calm Calm - N/A   Unknown
5:55 PM 50.0 °F - 32.0 °F 50% 30.14 in 10.0 mi Calm Calm - N/A   Unknown
6:15 PM 46.4 °F - 32.0 °F 57% 30.15 in 10.0 mi Calm Calm - N/A   Unknown
6:35 PM 46.4 °F - 32.0 °F 57% 30.15 in 10.0 mi Calm Calm - N/A   Unknown
6:55 PM 46.4 °F - 32.0 °F 57% 30.15 in 10.0 mi Calm Calm - N/A   Unknown
7:15 PM 46.4 °F 45.2 °F 32.0 °F 57% 30.16 in 10.0 mi South 3.5 mph - N/A   Unknown
7:35 PM 44.6 °F - 33.8 °F 66% 30.16 in 10.0 mi Calm Calm - N/A   Unknown
7:55 PM 44.6 °F - 33.8 °F 66% 30.16 in 10.0 mi Calm Calm - N/A   Unknown
8:15 PM 39.2 °F - 32.0 °F 75% 30.16 in 10.0 mi Calm Calm - N/A   Unknown
8:35 PM 41.0 °F - 32.0 °F 70% 30.16 in 10.0 mi Calm Calm - N/A   Unknown
8:55 PM 41.0 °F - 32.0 °F 70% 30.16 in 10.0 mi Calm Calm - N/A   Unknown
9:15 PM 39.2 °F - 32.0 °F 75% 30.17 in 10.0 mi Calm Calm - N/A   Unknown
9:35 PM 39.2 °F - 33.8 °F 81% 30.17 in 10.0 mi Calm Calm - N/A   Unknown
9:55 PM 37.4 °F - 35.6 °F 93% 30.17 in 10.0 mi Calm Calm - N/A   Clear
10:15 PM 37.4 °F - 37.4 °F 100% 30.18 in 10.0 mi Calm Calm - N/A   Clear
10:35 PM 39.2 °F - 35.6 °F 87% 30.18 in 10.0 mi Calm Calm - N/A   Clear
10:55 PM 37.4 °F - 35.6 °F 93% 30.18 in 10.0 mi Calm Calm - N/A   Clear
11:15 PM 37.4 °F - 35.6 °F 93% 30.18 in 10.0 mi Calm Calm - N/A   Clear
11:35 PM 39.2 °F - 37.4 °F 93% 30.18 in 10.0 mi Calm Calm - N/A   Clear
11:55 PM 37.4 °F - 35.6 °F 93% 30.18 in 10.0 mi Calm Calm - N/A   Clear